User: anonymous   Login
Location: Unspecified
(0.0000°N, 0.0000°E)
Time: 04:29:21
(UTC+02:00)
Language:

Cosmos 1300 - Orbit

View from above orbital plane
View from above orbital plane
View from above satellite
View from above satellite

Ground track
Ground track

The orbit data is extracted from the following two-line orbital elements,

1 12785U 81082A   15244.86479953  .00001643  00000-0  86759-4 0  9992
2 12785  82.5076 359.3830 0001862  45.5006  75.2972 15.14871776852713
Epoch (UTC): 01 September 2015 20:45:18
Eccentricity: 0.0001862
inclination: 82.5076°
perigee height: 520 km
apogee height: 522 km
right ascension of ascending node: 359.3830°
argument of perigee: 45.5006°
revolutions per day: 15.14871776
mean anomaly at epoch: 75.2972°
orbit number at epoch: 85271

The dashed part of the orbit path shows where the satellite is in the earth's shadow,  

DLR